{"data":{"norad_id":56001,"intl_designator":"2023-042R","name":"STARLINK-5944","alt_names":[],"object_type":"PAYLOAD","status":"ACTIVE","operator":null,"country":"US","launch_date":"2023-03-24","launch_site_code":"AFETR","launch_vehicle":null,"mission":null,"orbit_class":"UNKNOWN","rcs_meters":null,"size_class":null,"mass_kg":null,"dimensions":null,"purposes":["comms"],"wikipedia_slug":null,"has_3d_model":false,"image_url":null,"decayed_at":null,"tle_current":{"epoch":"2026-09-19T17:00:08.764128Z","epoch_age_seconds":174620,"freshness":"STALE","line1":"1 56001U 23042R   26262.70843477 -.00000104  00000+0  57288-5 0  9991","line2":"2 56001  43.0033  48.0276 0000770 258.0536 102.0229 15.27579386192491","mean_motion":15.27579386,"eccentricity":7.7e-5,"inclination_deg":43.0033,"raan_deg":48.0276,"arg_perigee_deg":258.0536,"mean_anomaly_deg":102.0229,"bstar":5.7288e-6,"rev_number":19249,"period_min":94.266786603521,"perigee_km":482.52262310619,"apogee_km":483.57924604812,"semimajor_km":6861.1879345772,"source":"CELESTRAK","updated_at":"2026-09-21T09:00:33.351961Z"}}}